owner,sensor,date,latitude,longitude,vertical_datum,wind_speed,wind_to_direction,wind_speed_of_gust,qcFlag 
TCOON,ioos:station:TCOON:068:1,2019-09-01T00:24:00Z,27.2970,-97.4049,0.0,4.9,83.0,6.1,'11111222,11111222,11111222' 
TCOON,ioos:station:TCOON:068:1,2019-09-01T01:24:00Z,27.2970,-97.4049,0.0,5.8,74.0,6.7,'11111222,11111222,11111222' 
TCOON,ioos:station:TCOON:068:1,2019-09-01T02:24:00Z,27.2970,-97.4049,0.0,5.5,76.0,6.7,'11111222,11111222,11111222' 
TCOON,ioos:station:TCOON:068:1,2019-09-01T03:24:00Z,27.2970,-97.4049,0.0,4.9,81.0,6.6,'11111222,11111222,11111222' 
TCOON,ioos:station:TCOON:068:1,2019-09-01T04:24:00Z,27.2970,-97.4049,0.0,4.6,79.0,5.1,'11111222,11111222,11111222' 
TCOON,ioos:station:TCOON:068:1,2019-09-01T05:24:00Z,27.2970,-97.4049,0.0,4.4,84.0,5.2,'11111222,11111222,11111222' 
TCOON,ioos:station:TCOON:068:1,2019-09-01T06:24:00Z,27.2970,-97.4049,0.0,3.5,105.0,5.0,'11111222,11111222,11111222' 
TCOON,ioos:station:TCOON:068:1,2019-09-01T07:24:00Z,27.2970,-97.4049,0.0,4.0,112.0,4.6,'11111222,11111222,11111222' 
TCOON,ioos:station:TCOON:068:1,2019-09-01T08:24:00Z,27.2970,-97.4049,0.0,3.1,120.0,3.9,'11111222,11111222,11111222' 
TCOON,ioos:station:TCOON:068:1,2019-09-01T09:24:00Z,27.2970,-97.4049,0.0,1.9,112.0,2.2,'11111222,11111222,11111222' 
TCOON,ioos:station:TCOON:068:1,2019-09-01T10:24:00Z,27.2970,-97.4049,0.0,1.2,101.0,1.7,'11111222,11111222,11111222' 
TCOON,ioos:station:TCOON:068:1,2019-09-01T11:24:00Z,27.2970,-97.4049,0.0,0.8,146.0,0.9,'11111222,11111222,11111222' 
TCOON,ioos:station:TCOON:068:1,2019-09-01T12:24:00Z,27.2970,-97.4049,0.0,1.9,2.0,2.0,'11111222,11111222,11111222' 
TCOON,ioos:station:TCOON:068:1,2019-09-01T13:24:00Z,27.2970,-97.4049,0.0,4.4,322.0,5.2,'11111222,11111222,11111222' 
TCOON,ioos:station:TCOON:068:1,2019-09-01T14:24:00Z,27.2970,-97.4049,0.0,3.1,339.0,4.0,'11111222,11111222,11111222' 
TCOON,ioos:station:TCOON:068:1,2019-09-01T15:24:00Z,27.2970,-97.4049,0.0,3.6,351.0,4.5,'11111222,11111222,11111222' 
TCOON,ioos:station:TCOON:068:1,2019-09-01T16:24:00Z,27.2970,-97.4049,0.0,4.8,8.0,6.1,'11111222,11111222,11111222' 
TCOON,ioos:station:TCOON:068:1,2019-09-01T17:24:00Z,27.2970,-97.4049,0.0,4.9,46.0,7.4,'11111222,11111222,11111222' 
TCOON,ioos:station:TCOON:068:1,2019-09-01T18:24:00Z,27.2970,-97.4049,0.0,4.6,48.0,6.3,'11111222,11111222,11111222' 
TCOON,ioos:station:TCOON:068:1,2019-09-01T19:24:00Z,27.2970,-97.4049,0.0,5.2,54.0,6.4,'11111222,11111222,11111222' 
TCOON,ioos:station:TCOON:068:1,2019-09-01T20:24:00Z,27.2970,-97.4049,0.0,7.4,50.0,8.7,'11111222,11111222,11111222' 
TCOON,ioos:station:TCOON:068:1,2019-09-01T21:24:00Z,27.2970,-97.4049,0.0,7.1,57.0,8.5,'11111222,11111222,11111222' 
TCOON,ioos:station:TCOON:068:1,2019-09-01T22:24:00Z,27.2970,-97.4049,0.0,6.2,64.0,7.6,'11111222,11111222,11111222' 
TCOON,ioos:station:TCOON:068:1,2019-09-01T23:24:00Z,27.2970,-97.4049,0.0,5.8,66.0,6.9,'11111222,11111222,11111222' 
TCOON,ioos:station:TCOON:068:1,2019-09-02T00:24:00Z,27.2970,-97.4049,0.0,5.9,76.0,6.9,'11111222,11111222,11111222' 
TCOON,ioos:station:TCOON:068:1,2019-09-02T01:24:00Z,27.2970,-97.4049,0.0,6.3,64.0,7.2,'11111222,11111222,11111222' 
TCOON,ioos:station:TCOON:068:1,2019-09-02T02:24:00Z,27.2970,-97.4049,0.0,6.1,59.0,6.9,'11111222,11111222,11111222' 
TCOON,ioos:station:TCOON:068:1,2019-09-02T03:24:00Z,27.2970,-97.4049,0.0,5.6,63.0,7.3,'11111222,11111222,11111222' 
TCOON,ioos:station:TCOON:068:1,2019-09-02T04:24:00Z,27.2970,-97.4049,0.0,5.6,62.0,7.2,'11111222,11111222,11111222' 
TCOON,ioos:station:TCOON:068:1,2019-09-02T05:24:00Z,27.2970,-97.4049,0.0,5.7,52.0,6.5,'11111222,11111222,11111222' 
TCOON,ioos:station:TCOON:068:1,2019-09-02T06:24:00Z,27.2970,-97.4049,0.0,4.0,55.0,4.8,'11111222,11111222,11111222' 
TCOON,ioos:station:TCOON:068:1,2019-09-02T07:24:00Z,27.2970,-97.4049,0.0,3.0,53.0,3.6,'11111222,11111222,11111222' 
TCOON,ioos:station:TCOON:068:1,2019-09-02T08:24:00Z,27.2970,-97.4049,0.0,2.5,20.0,3.5,'11111222,11111222,11111222' 
TCOON,ioos:station:TCOON:068:1,2019-09-02T09:24:00Z,27.2970,-97.4049,0.0,2.2,329.0,2.8,'11111222,11111222,11111222' 
TCOON,ioos:station:TCOON:068:1,2019-09-02T10:24:00Z,27.2970,-97.4049,0.0,2.8,327.0,3.4,'11111222,11111222,11111222' 
TCOON,ioos:station:TCOON:068:1,2019-09-02T11:24:00Z,27.2970,-97.4049,0.0,4.5,335.0,4.7,'11111222,11111222,11111222' 
TCOON,ioos:station:TCOON:068:1,2019-09-02T12:24:00Z,27.2970,-97.4049,0.0,4.1,332.0,4.5,'11111222,11111222,11111222' 
TCOON,ioos:station:TCOON:068:1,2019-09-02T15:24:00Z,27.2970,-97.4049,0.0,7.4,342.0,8.4,'11111222,11111222,11111222' 
TCOON,ioos:station:TCOON:068:1,2019-09-02T16:24:00Z,27.2970,-97.4049,0.0,6.9,1.0,8.3,'11111222,11111222,11111222' 
TCOON,ioos:station:TCOON:068:1,2019-09-02T17:24:00Z,27.2970,-97.4049,0.0,7.4,19.0,9.0,'11111222,11111222,11111222' 
TCOON,ioos:station:TCOON:068:1,2019-09-02T18:24:00Z,27.2970,-97.4049,0.0,7.4,21.0,9.0,'11111222,11111222,11111222' 
TCOON,ioos:station:TCOON:068:1,2019-09-02T19:24:00Z,27.2970,-97.4049,0.0,8.1,25.0,9.9,'11111222,11111222,11111222' 
TCOON,ioos:station:TCOON:068:1,2019-09-02T20:24:00Z,27.2970,-97.4049,0.0,7.6,37.0,9.4,'11111222,11111222,11111222' 
TCOON,ioos:station:TCOON:068:1,2019-09-02T21:24:00Z,27.2970,-97.4049,0.0,7.7,33.0,9.3,'11111222,11111222,11111222' 
TCOON,ioos:station:TCOON:068:1,2019-09-02T22:24:00Z,27.2970,-97.4049,0.0,7.1,39.0,9.8,'11111222,11111222,11111222' 
TCOON,ioos:station:TCOON:068:1,2019-09-02T23:24:00Z,27.2970,-97.4049,0.0,7.7,46.0,8.8,'11111222,11111222,11111222' 
TCOON,ioos:station:TCOON:068:1,2019-09-03T00:24:00Z,27.2970,-97.4049,0.0,7.3,52.0,8.6,'11111222,11111222,11111222' 
TCOON,ioos:station:TCOON:068:1,2019-09-03T01:24:00Z,27.2970,-97.4049,0.0,7.2,49.0,7.9,'11111222,11111222,11111222' 
TCOON,ioos:station:TCOON:068:1,2019-09-03T02:24:00Z,27.2970,-97.4049,0.0,5.8,49.0,7.0,'11111222,11111222,11111222' 
TCOON,ioos:station:TCOON:068:1,2019-09-03T03:24:00Z,27.2970,-97.4049,0.0,6.3,57.0,7.7,'11111222,11111222,11111222' 
TCOON,ioos:station:TCOON:068:1,2019-09-03T04:24:00Z,27.2970,-97.4049,0.0,7.2,55.0,8.1,'11111222,11111222,11111222' 
TCOON,ioos:station:TCOON:068:1,2019-09-03T05:24:00Z,27.2970,-97.4049,0.0,4.7,62.0,6.0,'11111222,11111222,11111222' 
TCOON,ioos:station:TCOON:068:1,2019-09-03T06:24:00Z,27.2970,-97.4049,0.0,4.8,59.0,5.7,'11111222,11111222,11111222' 
TCOON,ioos:station:TCOON:068:1,2019-09-03T07:24:00Z,27.2970,-97.4049,0.0,4.7,54.0,5.7,'11111222,11111222,11111222' 
TCOON,ioos:station:TCOON:068:1,2019-09-03T08:24:00Z,27.2970,-97.4049,0.0,3.0,16.0,3.6,'11111222,11111222,11111222' 
TCOON,ioos:station:TCOON:068:1,2019-09-03T09:24:00Z,27.2970,-97.4049,0.0,2.8,19.0,3.7,'11111222,11111222,11111222' 
TCOON,ioos:station:TCOON:068:1,2019-09-03T10:24:00Z,27.2970,-97.4049,0.0,4.1,310.0,4.4,'11111222,11111222,11111222' 
TCOON,ioos:station:TCOON:068:1,2019-09-03T11:24:00Z,27.2970,-97.4049,0.0,5.6,296.0,6.3,'11111222,11111222,11111222' 
TCOON,ioos:station:TCOON:068:1,2019-09-03T12:24:00Z,27.2970,-97.4049,0.0,6.5,306.0,7.2,'11111222,11111222,11111222' 
TCOON,ioos:station:TCOON:068:1,2019-09-03T13:24:00Z,27.2970,-97.4049,0.0,7.1,316.0,7.8,'11111222,11111222,11111222' 
TCOON,ioos:station:TCOON:068:1,2019-09-03T14:30:00Z,27.2970,-97.4049,0.0,3.7,330.0,4.5,'11111222,11111222,11111222' 
TCOON,ioos:station:TCOON:068:1,2019-09-03T15:30:00Z,27.2970,-97.4049,0.0,3.5,308.0,4.1,'11111222,11111222,11111222' 
TCOON,ioos:station:TCOON:068:1,2019-09-03T16:30:00Z,27.2970,-97.4049,0.0,4.2,330.0,5.2,'11111222,11111222,11111222' 
TCOON,ioos:station:TCOON:068:1,2019-09-03T17:30:00Z,27.2970,-97.4049,0.0,7.6,358.0,9.2,'11111222,11111222,11111222' 
TCOON,ioos:station:TCOON:068:1,2019-09-03T18:30:00Z,27.2970,-97.4049,0.0,7.2,9.0,9.1,'11111222,11111222,11111222' 
TCOON,ioos:station:TCOON:068:1,2019-09-03T19:30:00Z,27.2970,-97.4049,0.0,6.9,21.0,8.8,'11111222,11111222,11111222' 
TCOON,ioos:station:TCOON:068:1,2019-09-03T20:30:00Z,27.2970,-97.4049,0.0,8.2,27.0,10.5,'11111222,11111222,11111222' 
TCOON,ioos:station:TCOON:068:1,2019-09-03T21:30:00Z,27.2970,-97.4049,0.0,9.0,27.0,10.5,'11111222,11111222,11111222' 
TCOON,ioos:station:TCOON:068:1,2019-09-03T22:30:00Z,27.2970,-97.4049,0.0,9.6,34.0,10.9,'11111222,11111222,11111222' 
TCOON,ioos:station:TCOON:068:1,2019-09-03T23:24:00Z,27.2970,-97.4049,0.0,8.4,45.0,10.5,'11111222,11111222,11111222' 
TCOON,ioos:station:TCOON:068:1,2019-09-04T00:24:00Z,27.2970,-97.4049,0.0,6.8,41.0,8.5,'11111222,11111222,11111222' 
TCOON,ioos:station:TCOON:068:1,2019-09-04T01:24:00Z,27.2970,-97.4049,0.0,5.9,66.0,7.0,'11111222,11111222,11111222' 
TCOON,ioos:station:TCOON:068:1,2019-09-04T02:24:00Z,27.2970,-97.4049,0.0,5.3,29.0,6.5,'11111222,11111222,11111222' 
TCOON,ioos:station:TCOON:068:1,2019-09-04T03:24:00Z,27.2970,-97.4049,0.0,6.3,40.0,8.5,'11111222,11111222,11111222' 
TCOON,ioos:station:TCOON:068:1,2019-09-04T04:24:00Z,27.2970,-97.4049,0.0,8.0,41.0,9.9,'11111222,11111222,11111222' 
TCOON,ioos:station:TCOON:068:1,2019-09-04T05:24:00Z,27.2970,-97.4049,0.0,8.3,38.0,9.7,'11111222,11111222,11111222' 
TCOON,ioos:station:TCOON:068:1,2019-09-04T06:24:00Z,27.2970,-97.4049,0.0,8.0,34.0,9.9,'11111222,11111222,11111222' 
TCOON,ioos:station:TCOON:068:1,2019-09-04T07:24:00Z,27.2970,-97.4049,0.0,7.5,41.0,9.6,'11111222,11111222,11111222' 
TCOON,ioos:station:TCOON:068:1,2019-09-04T08:24:00Z,27.2970,-97.4049,0.0,9.7,38.0,11.4,'11111222,11111222,11111222' 
TCOON,ioos:station:TCOON:068:1,2019-09-04T09:24:00Z,27.2970,-97.4049,0.0,10.0,36.0,11.3,'11111222,11111222,11111222' 
TCOON,ioos:station:TCOON:068:1,2019-09-04T10:24:00Z,27.2970,-97.4049,0.0,10.4,45.0,12.4,'11111222,11111222,11111222' 
TCOON,ioos:station:TCOON:068:1,2019-09-04T11:24:00Z,27.2970,-97.4049,0.0,6.0,30.0,8.1,'11111222,11111222,11111222' 
TCOON,ioos:station:TCOON:068:1,2019-09-04T12:24:00Z,27.2970,-97.4049,0.0,11.2,55.0,14.3,'11111222,11111222,11111222' 
TCOON,ioos:station:TCOON:068:1,2019-09-04T13:24:00Z,27.2970,-97.4049,0.0,11.4,57.0,15.5,'11111222,11111222,11111222' 
TCOON,ioos:station:TCOON:068:1,2019-09-04T14:30:00Z,27.2970,-97.4049,0.0,7.0,31.0,8.3,'11111222,11111222,11111222' 
TCOON,ioos:station:TCOON:068:1,2019-09-04T15:24:00Z,27.2970,-97.4049,0.0,10.0,27.0,11.7,'11111222,11111222,11111222' 
TCOON,ioos:station:TCOON:068:1,2019-09-04T16:24:00Z,27.2970,-97.4049,0.0,11.2,34.0,13.3,'11111222,11111222,11111222' 
TCOON,ioos:station:TCOON:068:1,2019-09-04T17:30:00Z,27.2970,-97.4049,0.0,11.9,35.0,14.2,'11111222,11111222,11111222' 
TCOON,ioos:station:TCOON:068:1,2019-09-04T18:24:00Z,27.2970,-97.4049,0.0,12.3,40.0,15.7,'11111222,11111222,11111222' 
TCOON,ioos:station:TCOON:068:1,2019-09-04T19:30:00Z,27.2970,-97.4049,0.0,14.2,40.0,17.4,'11111222,11111222,11111222' 
TCOON,ioos:station:TCOON:068:1,2019-09-04T20:24:00Z,27.2970,-97.4049,0.0,11.8,34.0,14.3,'11111222,11111222,11111222' 
TCOON,ioos:station:TCOON:068:1,2019-09-04T21:24:00Z,27.2970,-97.4049,0.0,12.2,40.0,15.9,'11111222,11111222,11111222' 
TCOON,ioos:station:TCOON:068:1,2019-09-04T22:24:00Z,27.2970,-97.4049,0.0,11.6,50.0,13.8,'11111222,11111222,11111222' 
TCOON,ioos:station:TCOON:068:1,2019-09-04T23:24:00Z,27.2970,-97.4049,0.0,12.8,39.0,15.6,'11111222,11111222,11111222' 
TCOON,ioos:station:TCOON:068:1,2019-09-05T00:24:00Z,27.2970,-97.4049,0.0,9.7,55.0,12.3,'11111222,11111222,11111222' 
TCOON,ioos:station:TCOON:068:1,2019-09-05T01:24:00Z,27.2970,-97.4049,0.0,9.6,57.0,11.2,'11111222,11111222,11111222' 
TCOON,ioos:station:TCOON:068:1,2019-09-05T02:24:00Z,27.2970,-97.4049,0.0,9.0,53.0,10.5,'11111222,11111222,11111222' 
TCOON,ioos:station:TCOON:068:1,2019-09-05T03:24:00Z,27.2970,-97.4049,0.0,9.2,60.0,12.2,'11111222,11111222,11111222' 
TCOON,ioos:station:TCOON:068:1,2019-09-05T04:24:00Z,27.2970,-97.4049,0.0,8.7,65.0,10.2,'11111222,11111222,11111222' 
TCOON,ioos:station:TCOON:068:1,2019-09-05T05:24:00Z,27.2970,-97.4049,0.0,9.6,62.0,11.1,'11111222,11111222,11111222' 
TCOON,ioos:station:TCOON:068:1,2019-09-05T06:24:00Z,27.2970,-97.4049,0.0,7.3,76.0,8.9,'11111222,11111222,11111222' 
TCOON,ioos:station:TCOON:068:1,2019-09-05T07:24:00Z,27.2970,-97.4049,0.0,6.3,78.0,7.9,'11111222,11111222,11111222' 
TCOON,ioos:station:TCOON:068:1,2019-09-05T08:24:00Z,27.2970,-97.4049,0.0,8.8,84.0,12.6,'11111222,11111222,11111222' 
TCOON,ioos:station:TCOON:068:1,2019-09-05T09:24:00Z,27.2970,-97.4049,0.0,5.3,110.0,7.0,'11111222,11111222,11111222' 
TCOON,ioos:station:TCOON:068:1,2019-09-05T10:24:00Z,27.2970,-97.4049,0.0,3.2,124.0,3.8,'11111222,11111222,11111222' 
TCOON,ioos:station:TCOON:068:1,2019-09-05T11:24:00Z,27.2970,-97.4049,0.0,2.7,123.0,3.6,'11111222,11111222,11111222' 
TCOON,ioos:station:TCOON:068:1,2019-09-05T12:24:00Z,27.2970,-97.4049,0.0,2.3,76.0,2.8,'11111222,11111222,11111222' 
TCOON,ioos:station:TCOON:068:1,2019-09-05T13:24:00Z,27.2970,-97.4049,0.0,3.1,39.0,3.6,'11111222,11111222,11111222' 
TCOON,ioos:station:TCOON:068:1,2019-09-05T14:24:00Z,27.2970,-97.4049,0.0,5.4,33.0,6.3,'11111222,11111222,11111222' 
TCOON,ioos:station:TCOON:068:1,2019-09-05T15:24:00Z,27.2970,-97.4049,0.0,5.8,33.0,7.3,'11111222,11111222,11111222' 
TCOON,ioos:station:TCOON:068:1,2019-09-05T16:24:00Z,27.2970,-97.4049,0.0,5.7,53.0,6.5,'11111222,11111222,11111222' 
TCOON,ioos:station:TCOON:068:1,2019-09-05T17:30:00Z,27.2970,-97.4049,0.0,7.3,50.0,8.2,'11111222,11111222,11111222' 
TCOON,ioos:station:TCOON:068:1,2019-09-05T18:30:00Z,27.2970,-97.4049,0.0,6.7,59.0,8.3,'11111222,11111222,11111222' 
TCOON,ioos:station:TCOON:068:1,2019-09-05T19:24:00Z,27.2970,-97.4049,0.0,5.8,50.0,7.1,'11111222,11111222,11111222' 
TCOON,ioos:station:TCOON:068:1,2019-09-05T20:24:00Z,27.2970,-97.4049,0.0,4.2,56.0,4.8,'11111222,11111222,11111222' 
TCOON,ioos:station:TCOON:068:1,2019-09-05T21:24:00Z,27.2970,-97.4049,0.0,2.0,61.0,2.4,'11111222,11111222,11111222' 
TCOON,ioos:station:TCOON:068:1,2019-09-05T22:24:00Z,27.2970,-97.4049,0.0,3.5,51.0,4.5,'11111222,11111222,11111222' 
TCOON,ioos:station:TCOON:068:1,2019-09-05T23:24:00Z,27.2970,-97.4049,0.0,5.0,74.0,5.7,'11111222,11111222,11111222' 
TCOON,ioos:station:TCOON:068:1,2019-09-06T00:24:00Z,27.2970,-97.4049,0.0,4.1,81.0,5.4,'11111222,11111222,11111222' 
TCOON,ioos:station:TCOON:068:1,2019-09-06T01:24:00Z,27.2970,-97.4049,0.0,2.3,100.0,3.2,'11111222,11111222,11111222' 
TCOON,ioos:station:TCOON:068:1,2019-09-06T02:24:00Z,27.2970,-97.4049,0.0,2.0,100.0,2.6,'11111222,11111222,11111222' 
TCOON,ioos:station:TCOON:068:1,2019-09-06T03:24:00Z,27.2970,-97.4049,0.0,1.6,106.0,1.8,'11111222,11111222,11111222' 
TCOON,ioos:station:TCOON:068:1,2019-09-06T04:24:00Z,27.2970,-97.4049,0.0,2.5,97.0,3.6,'11111222,11111222,11111222' 
TCOON,ioos:station:TCOON:068:1,2019-09-06T06:42:00Z,27.2970,-97.4049,0.0,2.1,100.0,2.8,'11111222,11111222,11111222' 
TCOON,ioos:station:TCOON:068:1,2019-09-06T07:42:00Z,27.2970,-97.4049,0.0,2.3,119.0,2.9,'11111222,11111222,11111222' 
TCOON,ioos:station:TCOON:068:1,2019-09-06T08:24:00Z,27.2970,-97.4049,0.0,2.1,122.0,2.4,'11111222,11111222,11111222' 
TCOON,ioos:station:TCOON:068:1,2019-09-06T09:24:00Z,27.2970,-97.4049,0.0,1.6,146.0,1.9,'11111222,11111222,11111222' 
TCOON,ioos:station:TCOON:068:1,2019-09-06T10:24:00Z,27.2970,-97.4049,0.0,1.0,112.0,1.2,'11111222,11111222,11111222' 
TCOON,ioos:station:TCOON:068:1,2019-09-06T11:24:00Z,27.2970,-97.4049,0.0,0.8,111.0,1.1,'11111222,11111222,11111222' 
TCOON,ioos:station:TCOON:068:1,2019-09-06T12:24:00Z,27.2970,-97.4049,0.0,1.7,350.0,1.9,'11111222,11111222,11111222' 
TCOON,ioos:station:TCOON:068:1,2019-09-06T13:24:00Z,27.2970,-97.4049,0.0,1.8,2.0,2.0,'11111222,11111222,11111222' 
TCOON,ioos:station:TCOON:068:1,2019-09-06T14:24:00Z,27.2970,-97.4049,0.0,2.3,6.0,2.5,'11111222,11111222,11111222' 
TCOON,ioos:station:TCOON:068:1,2019-09-06T15:24:00Z,27.2970,-97.4049,0.0,3.5,51.0,4.2,'11111222,11111222,11111222' 
TCOON,ioos:station:TCOON:068:1,2019-09-06T16:24:00Z,27.2970,-97.4049,0.0,3.6,46.0,4.2,'11111222,11111222,11111222' 
TCOON,ioos:station:TCOON:068:1,2019-09-06T17:24:00Z,27.2970,-97.4049,0.0,3.7,66.0,5.2,'11111222,11111222,11111222' 
TCOON,ioos:station:TCOON:068:1,2019-09-06T18:24:00Z,27.2970,-97.4049,0.0,3.6,72.0,5.2,'11111222,11111222,11111222' 
TCOON,ioos:station:TCOON:068:1,2019-09-06T19:24:00Z,27.2970,-97.4049,0.0,4.2,50.0,5.3,'11111222,11111222,11111222' 
TCOON,ioos:station:TCOON:068:1,2019-09-06T20:24:00Z,27.2970,-97.4049,0.0,4.3,70.0,6.8,'11111222,11111222,11111222' 
TCOON,ioos:station:TCOON:068:1,2019-09-06T21:24:00Z,27.2970,-97.4049,0.0,6.4,89.0,7.6,'11111222,11111222,11111222' 
TCOON,ioos:station:TCOON:068:1,2019-09-06T22:24:00Z,27.2970,-97.4049,0.0,5.8,96.0,7.9,'11111222,11111222,11111222' 
TCOON,ioos:station:TCOON:068:1,2019-09-06T23:24:00Z,27.2970,-97.4049,0.0,6.7,79.0,7.7,'11111222,11111222,11111222' 
TCOON,ioos:station:TCOON:068:1,2019-09-07T00:24:00Z,27.2970,-97.4049,0.0,5.2,63.0,6.2,'11111222,11111222,11111222' 
TCOON,ioos:station:TCOON:068:1,2019-09-07T01:24:00Z,27.2970,-97.4049,0.0,4.5,85.0,5.7,'11111222,11111222,11111222' 
TCOON,ioos:station:TCOON:068:1,2019-09-07T02:24:00Z,27.2970,-97.4049,0.0,5.9,92.0,6.9,'11111222,11111222,11111222' 
TCOON,ioos:station:TCOON:068:1,2019-09-07T03:24:00Z,27.2970,-97.4049,0.0,5.5,104.0,6.8,'11111222,11111222,11111222' 
TCOON,ioos:station:TCOON:068:1,2019-09-07T04:24:00Z,27.2970,-97.4049,0.0,5.3,116.0,6.6,'11111222,11111222,11111222' 
TCOON,ioos:station:TCOON:068:1,2019-09-07T05:24:00Z,27.2970,-97.4049,0.0,5.1,124.0,6.2,'11111222,11111222,11111222' 
TCOON,ioos:station:TCOON:068:1,2019-09-07T06:24:00Z,27.2970,-97.4049,0.0,5.1,134.0,6.4,'11111222,11111222,11111222' 
TCOON,ioos:station:TCOON:068:1,2019-09-07T07:24:00Z,27.2970,-97.4049,0.0,4.3,137.0,5.8,'11111222,11111222,11111222' 
TCOON,ioos:station:TCOON:068:1,2019-09-07T08:24:00Z,27.2970,-97.4049,0.0,5.9,143.0,7.3,'11111222,11111222,11111222' 
TCOON,ioos:station:TCOON:068:1,2019-09-07T09:24:00Z,27.2970,-97.4049,0.0,5.0,147.0,7.3,'11111222,11111222,11111222' 
TCOON,ioos:station:TCOON:068:1,2019-09-07T10:24:00Z,27.2970,-97.4049,0.0,4.9,184.0,6.5,'11111222,11111222,11111222' 
TCOON,ioos:station:TCOON:068:1,2019-09-07T11:24:00Z,27.2970,-97.4049,0.0,2.1,207.0,3.5,'11111222,11111222,11111222' 
TCOON,ioos:station:TCOON:068:1,2019-09-07T12:24:00Z,27.2970,-97.4049,0.0,2.7,198.0,3.0,'11111222,11111222,11111222' 
TCOON,ioos:station:TCOON:068:1,2019-09-07T13:24:00Z,27.2970,-97.4049,0.0,1.9,204.0,2.7,'11111222,11111222,11111222' 
TCOON,ioos:station:TCOON:068:1,2019-09-07T14:24:00Z,27.2970,-97.4049,0.0,0.7,302.0,1.3,'11111222,11111222,11111222' 
TCOON,ioos:station:TCOON:068:1,2019-09-07T15:24:00Z,27.2970,-97.4049,0.0,0.1,290.0,1.1,'11111222,11111222,11111222' 
TCOON,ioos:station:TCOON:068:1,2019-09-07T16:24:00Z,27.2970,-97.4049,0.0,1.2,183.0,1.7,'11111222,11111222,11111222' 
TCOON,ioos:station:TCOON:068:1,2019-09-07T17:24:00Z,27.2970,-97.4049,0.0,2.1,131.0,2.6,'11111222,11111222,11111222' 
TCOON,ioos:station:TCOON:068:1,2019-09-07T18:24:00Z,27.2970,-97.4049,0.0,3.6,101.0,4.6,'11111222,11111222,11111222' 
TCOON,ioos:station:TCOON:068:1,2019-09-07T19:24:00Z,27.2970,-97.4049,0.0,3.5,113.0,4.3,'11111222,11111222,11111222' 
TCOON,ioos:station:TCOON:068:1,2019-09-07T20:24:00Z,27.2970,-97.4049,0.0,5.1,79.0,6.3,'11111222,11111222,11111222' 
TCOON,ioos:station:TCOON:068:1,2019-09-07T21:24:00Z,27.2970,-97.4049,0.0,5.4,106.0,7.0,'11111222,11111222,11111222' 
TCOON,ioos:station:TCOON:068:1,2019-09-07T22:24:00Z,27.2970,-97.4049,0.0,6.8,86.0,9.0,'11111222,11111222,11111222' 
TCOON,ioos:station:TCOON:068:1,2019-09-07T23:24:00Z,27.2970,-97.4049,0.0,5.8,107.0,7.0,'11111222,11111222,11111222' 
TCOON,ioos:station:TCOON:068:1,2019-09-08T00:24:00Z,27.2970,-97.4049,0.0,5.6,106.0,8.0,'11111222,11111222,11111222' 
TCOON,ioos:station:TCOON:068:1,2019-09-08T01:24:00Z,27.2970,-97.4049,0.0,6.6,114.0,8.1,'11111222,11111222,11111222' 
TCOON,ioos:station:TCOON:068:1,2019-09-08T02:24:00Z,27.2970,-97.4049,0.0,5.9,120.0,8.3,'11111222,11111222,11111222' 
TCOON,ioos:station:TCOON:068:1,2019-09-08T03:24:00Z,27.2970,-97.4049,0.0,5.7,126.0,8.2,'11111222,11111222,11111222' 
TCOON,ioos:station:TCOON:068:1,2019-09-08T04:24:00Z,27.2970,-97.4049,0.0,5.9,123.0,7.9,'11111222,11111222,11111222' 
TCOON,ioos:station:TCOON:068:1,2019-09-08T05:24:00Z,27.2970,-97.4049,0.0,6.6,132.0,8.3,'11111222,11111222,11111222' 
TCOON,ioos:station:TCOON:068:1,2019-09-08T06:24:00Z,27.2970,-97.4049,0.0,6.1,134.0,7.4,'11111222,11111222,11111222' 
TCOON,ioos:station:TCOON:068:1,2019-09-08T07:24:00Z,27.2970,-97.4049,0.0,5.1,151.0,6.6,'11111222,11111222,11111222' 
TCOON,ioos:station:TCOON:068:1,2019-09-08T08:24:00Z,27.2970,-97.4049,0.0,6.7,160.0,7.6,'11111222,11111222,11111222' 
TCOON,ioos:station:TCOON:068:1,2019-09-08T09:24:00Z,27.2970,-97.4049,0.0,4.6,191.0,5.2,'11111222,11111222,11111222' 
TCOON,ioos:station:TCOON:068:1,2019-09-08T10:24:00Z,27.2970,-97.4049,0.0,2.6,180.0,3.2,'11111222,11111222,11111222' 
TCOON,ioos:station:TCOON:068:1,2019-09-08T11:24:00Z,27.2970,-97.4049,0.0,3.7,156.0,5.0,'11111222,11111222,11111222' 
TCOON,ioos:station:TCOON:068:1,2019-09-08T12:24:00Z,27.2970,-97.4049,0.0,4.6,153.0,5.5,'11111222,11111222,11111222' 
TCOON,ioos:station:TCOON:068:1,2019-09-08T13:24:00Z,27.2970,-97.4049,0.0,4.0,127.0,5.1,'11111222,11111222,11111222' 
TCOON,ioos:station:TCOON:068:1,2019-09-08T14:24:00Z,27.2970,-97.4049,0.0,4.9,128.0,6.7,'11111222,11111222,11111222' 
TCOON,ioos:station:TCOON:068:1,2019-09-08T15:24:00Z,27.2970,-97.4049,0.0,5.6,125.0,7.3,'11111222,11111222,11111222' 
TCOON,ioos:station:TCOON:068:1,2019-09-08T16:24:00Z,27.2970,-97.4049,0.0,7.0,112.0,8.8,'11111222,11111222,11111222' 
TCOON,ioos:station:TCOON:068:1,2019-09-08T17:24:00Z,27.2970,-97.4049,0.0,7.6,139.0,9.5,'11111222,11111222,11111222' 
TCOON,ioos:station:TCOON:068:1,2019-09-08T18:24:00Z,27.2970,-97.4049,0.0,6.9,120.0,8.3,'11111222,11111222,11111222' 
TCOON,ioos:station:TCOON:068:1,2019-09-08T19:24:00Z,27.2970,-97.4049,0.0,7.4,116.0,9.5,'11111222,11111222,11111222' 
TCOON,ioos:station:TCOON:068:1,2019-09-08T20:24:00Z,27.2970,-97.4049,0.0,8.0,111.0,10.4,'11111222,11111222,11111222' 
TCOON,ioos:station:TCOON:068:1,2019-09-08T21:24:00Z,27.2970,-97.4049,0.0,8.9,114.0,10.7,'11111222,11111222,11111222' 
TCOON,ioos:station:TCOON:068:1,2019-09-08T22:24:00Z,27.2970,-97.4049,0.0,7.3,117.0,9.7,'11111222,11111222,11111222' 
TCOON,ioos:station:TCOON:068:1,2019-09-08T23:24:00Z,27.2970,-97.4049,0.0,8.4,117.0,10.7,'11111222,11111222,11111222' 
TCOON,ioos:station:TCOON:068:1,2019-09-09T00:24:00Z,27.2970,-97.4049,0.0,8.4,113.0,10.4,'11111222,11111222,11111222' 
TCOON,ioos:station:TCOON:068:1,2019-09-09T01:24:00Z,27.2970,-97.4049,0.0,7.2,114.0,8.8,'11111222,11111222,11111222' 
TCOON,ioos:station:TCOON:068:1,2019-09-09T02:24:00Z,27.2970,-97.4049,0.0,5.5,117.0,7.2,'11111222,11111222,11111222' 
TCOON,ioos:station:TCOON:068:1,2019-09-09T03:24:00Z,27.2970,-97.4049,0.0,7.0,114.0,9.6,'11111222,11111222,11111222' 
TCOON,ioos:station:TCOON:068:1,2019-09-09T04:24:00Z,27.2970,-97.4049,0.0,7.3,122.0,10.6,'11111222,11111222,11111222' 
TCOON,ioos:station:TCOON:068:1,2019-09-09T05:24:00Z,27.2970,-97.4049,0.0,7.4,128.0,9.8,'11111222,11111222,11111222' 
TCOON,ioos:station:TCOON:068:1,2019-09-09T06:24:00Z,27.2970,-97.4049,0.0,7.0,128.0,9.1,'11111222,11111222,11111222' 
TCOON,ioos:station:TCOON:068:1,2019-09-09T07:24:00Z,27.2970,-97.4049,0.0,7.5,122.0,8.9,'11111222,11111222,11111222' 
TCOON,ioos:station:TCOON:068:1,2019-09-09T08:24:00Z,27.2970,-97.4049,0.0,7.1,129.0,9.1,'11111222,11111222,11111222' 
TCOON,ioos:station:TCOON:068:1,2019-09-09T09:24:00Z,27.2970,-97.4049,0.0,6.6,133.0,9.9,'11111222,11111222,11111222' 
TCOON,ioos:station:TCOON:068:1,2019-09-09T10:24:00Z,27.2970,-97.4049,0.0,7.0,131.0,8.4,'11111222,11111222,11111222' 
TCOON,ioos:station:TCOON:068:1,2019-09-09T11:24:00Z,27.2970,-97.4049,0.0,4.7,129.0,6.6,'11111222,11111222,11111222' 
TCOON,ioos:station:TCOON:068:1,2019-09-09T12:24:00Z,27.2970,-97.4049,0.0,5.2,126.0,6.4,'11111222,11111222,11111222' 
TCOON,ioos:station:TCOON:068:1,2019-09-09T13:24:00Z,27.2970,-97.4049,0.0,6.1,121.0,7.3,'11111222,11111222,11111222' 
TCOON,ioos:station:TCOON:068:1,2019-09-09T14:42:00Z,27.2970,-97.4049,0.0,6.3,114.0,7.9,'11111222,11111222,11111222' 